Time,TemperatureF,DewpointF,PressureIn,WindDirection,WindDirectionDegrees,WindSpeedMPH,WindSpeedGustMPH,Humidity,HourlyPrecipIn,Conditions,Clouds,dailyrainin,SoftwareType,DateUTC
2013-05-10 04:12:00,51.0,50.0,29.99,SSE,164,0.0,0.0,98,0.00,,,0.01,,2013-05-10 08:12:00,
2013-05-10 04:22:00,52.0,51.0,29.98,SSE,164,0.0,0.0,98,0.00,,,0.01,,2013-05-10 08:22:00,
2013-05-10 04:32:00,52.0,52.0,29.98,SSE,164,0.0,0.0,99,0.00,,,0.01,,2013-05-10 08:32:00,
2013-05-10 04:42:00,52.0,52.0,29.98,SSE,164,0.0,0.0,99,0.00,,,0.01,,2013-05-10 08:42:00,
2013-05-10 04:52:00,52.0,52.0,29.98,SSE,164,0.0,0.0,99,0.00,,,0.01,,2013-05-10 08:52:00,
2013-05-10 05:01:00,52.0,52.0,29.98,SSE,164,0.0,0.0,99,0.00,,,0.01,,2013-05-10 09:01:00,
2013-05-10 05:11:00,52.0,52.0,29.98,SSE,164,0.0,0.0,99,0.00,,,0.01,,2013-05-10 09:11:00,
2013-05-10 05:21:00,52.0,52.0,29.98,SSE,164,0.0,0.0,99,0.00,,,0.00,,2013-05-10 09:21:00,
2013-05-10 05:33:00,53.0,53.0,29.97,SSE,164,0.0,0.0,99,0.00,,,0.00,,2013-05-10 09:33:00,
2013-05-10 05:43:00,53.0,53.0,29.97,SSE,164,0.0,0.0,99,0.00,,,0.00,,2013-05-10 09:43:00,
2013-05-10 05:52:00,53.0,53.0,29.97,SSE,164,0.0,0.0,99,0.00,,,0.00,,2013-05-10 09:52:00,
2013-05-10 06:03:00,53.0,53.0,29.97,SSE,164,0.0,0.0,99,0.00,,,0.00,,2013-05-10 10:03:00,
2013-05-10 06:12:00,53.0,53.0,29.97,SSE,164,0.0,0.0,99,0.00,,,0.00,,2013-05-10 10:12:00,
2013-05-10 06:23:00,54.0,54.0,29.97,SSE,164,0.0,0.0,99,0.00,,,0.00,,2013-05-10 10:23:00,
2013-05-10 06:32:00,54.0,54.0,29.97,SSE,163,0.0,0.0,99,0.00,,,0.00,,2013-05-10 10:32:00,
2013-05-10 06:42:00,54.0,54.0,29.97,SSE,163,0.0,0.0,99,0.00,,,0.00,,2013-05-10 10:42:00,
2013-05-10 06:53:00,54.0,54.0,29.97,SSE,164,0.0,0.0,99,0.00,,,0.00,,2013-05-10 10:53:00,
2013-05-10 07:02:00,54.0,54.0,29.97,SSE,164,0.0,0.0,99,0.00,,,0.00,,2013-05-10 11:02:00,
2013-05-10 07:12:00,55.0,55.0,29.98,SSW,200,0.0,0.0,99,0.00,,,0.00,,2013-05-10 11:12:00,
2013-05-10 07:22:00,55.0,55.0,29.98,SSW,200,0.0,0.0,99,0.00,,,0.00,,2013-05-10 11:22:00,
2013-05-10 07:32:00,55.0,55.0,29.98,SSW,199,0.0,0.0,99,0.00,,,0.00,,2013-05-10 11:32:00,
2013-05-10 07:42:00,55.0,55.0,29.98,SSW,199,0.0,0.0,99,0.00,,,0.00,,2013-05-10 11:42:00,
2013-05-10 07:52:00,56.0,56.0,30.00,South,190,0.0,7.0,99,0.00,,,0.00,,2013-05-10 11:52:00,
2013-05-10 08:01:00,58.0,58.0,30.00,NNW,342,0.0,3.0,99,0.00,,,0.00,,2013-05-10 12:01:00,
2013-05-10 08:12:00,58.0,58.0,30.00,NNW,342,0.0,3.0,99,0.00,,,0.00,,2013-05-10 12:12:00,
2013-05-10 08:22:00,59.0,59.0,30.00,NNW,342,0.0,2.0,99,0.00,,,0.00,,2013-05-10 12:22:00,
2013-05-10 08:32:00,60.0,60.0,30.00,NNW,342,0.0,0.0,99,0.00,,,0.00,,2013-05-10 12:32:00,
2013-05-10 08:42:00,60.0,60.0,30.00,NNW,342,0.0,0.0,99,0.00,,,0.00,,2013-05-10 12:42:00,
2013-05-10 08:52:00,61.0,60.0,30.00,NNW,342,0.0,0.0,97,0.00,,,0.00,,2013-05-10 12:52:00,
2013-05-10 09:01:00,62.0,61.0,29.99,NNW,342,0.0,1.0,97,0.00,,,0.00,,2013-05-10 13:01:00,
2013-05-10 09:11:00,62.0,61.0,29.99,NNW,342,0.0,1.0,97,0.00,,,0.00,,2013-05-10 13:11:00,
2013-05-10 09:21:00,62.0,61.0,30.00,NNW,342,1.0,2.0,97,0.00,,,0.00,,2013-05-10 13:21:00,
2013-05-10 09:32:00,62.0,61.0,30.00,NNW,342,0.0,1.0,97,0.05,,,0.05,,2013-05-10 13:32:00,
2013-05-10 09:42:00,62.0,61.0,30.00,NNW,342,0.0,1.0,97,0.05,,,0.05,,2013-05-10 13:42:00,
2013-05-10 09:52:00,61.0,60.0,30.00,NNW,342,0.0,3.0,97,0.05,,,0.05,,2013-05-10 13:52:00,
2013-05-10 10:02:00,61.0,60.0,30.00,SE,141,0.0,8.0,97,0.09,,,0.09,,2013-05-10 14:02:00,